Date String (YYYY-MM-DD hh:mm:ss) UTC,Instrument flags,absolute air pressure of the measurement (hPa),sample flow rate (lpm),inlet stack bypass flow (lpm),air temperature of the measurement (°C),ambient temperature measured by the external sensor (°C),aerosol sample conditioner tube jacket temperature (°C),OPC LED temperature (°C),internal box temperature (°C),relative humidity of the measurement (%),span deviation,mass concentration of particles derived from Lorenz-Mie calculation of OPC scattering (μg/m³),mass concentration of particles derived from Lorenz-Mie calculation of OPC scattering (μg/m³),mass concentration of particles derived from Lorenz-Mie calculation of OPC scattering (μg/m³)
DateTimeUTC,F1_M11,P_M11,Q1_M11,Q2_M11,T1_M11,T2_M11,T3_M11,T4_M11,T5_M11,U1_M11,ZSPAN_M11,X0_M11,X2_M11,X1_M11
2023-08-13 06:00:00,SystemResetWarning,0830.9,5.00,000.00,029.1,026.4,000.0,037.6,030.6,23.2,0000.0,0005.08,0003.31,0002.84
2023-08-13 06:01:00,SystemResetWarning,0831.0,5.00,000.00,029.1,026.8,000.0,037.7,030.7,23.1,0000.0,0005.18,0003.34,0002.84
2023-08-13 06:02:00,SystemResetWarning,0831.0,5.00,000.00,029.1,027.1,000.0,037.7,030.8,23.0,0000.0,0005.32,0003.35,0002.84
2023-08-13 06:03:00,SystemResetWarning,0831.0,5.00,000.00,029.2,027.4,000.0,037.7,030.9,22.9,0000.0,0005.40,0003.33,0002.84
2023-08-13 06:04:00,SystemResetWarning,0831.0,5.00,000.00,029.2,027.6,000.0,037.7,030.9,22.9,0000.0,0006.19,0003.36,0002.84
2023-08-13 06:05:00,SystemResetWarning,0831.1,5.00,000.00,029.3,027.8,000.0,037.7,031.0,22.8,0000.0,0006.19,0003.37,0002.85
2023-08-13 06:06:00,SystemResetWarning,0831.1,5.00,000.00,029.3,028.0,000.0,037.8,031.0,22.8,0000.0,0006.23,0003.39,0002.85
2023-08-13 06:07:00,SystemResetWarning,0831.1,5.00,000.00,029.3,028.1,000.0,037.8,031.1,22.7,0000.0,0006.35,0003.42,0002.88
2023-08-13 06:08:00,SystemResetWarning,0831.0,4.99,000.00,029.4,028.1,000.0,037.8,031.1,22.6,0000.0,0006.49,0003.43,0002.88
2023-08-13 06:09:00,SystemResetWarning,0831.1,4.99,000.00,029.4,026.6,000.0,037.7,030.8,22.6,0000.0,0006.70,0003.44,0002.87
2023-08-13 06:10:00,SystemResetWarning,0831.0,5.01,000.00,029.3,025.6,000.0,037.6,030.6,22.8,0000.0,0006.67,0003.45,0002.88
2023-08-13 06:11:00,SystemResetWarning,0831.0,5.01,000.00,029.2,025.6,000.0,037.6,030.5,22.8,0000.0,0006.80,0003.46,0002.88
2023-08-13 06:12:00,SystemResetWarning,0831.0,5.00,000.00,029.1,025.9,000.0,037.6,030.5,22.8,0000.0,0006.75,0003.46,0002.89
2023-08-13 06:13:00,SystemResetWarning,0831.1,5.00,000.00,029.1,026.3,000.0,037.6,030.6,22.8,0000.0,0006.46,0003.42,0002.90
2023-08-13 06:14:00,SystemResetWarning,0831.1,5.00,000.00,029.1,026.7,000.0,037.7,030.7,23.0,0000.0,0006.27,0003.41,0002.90
2023-08-13 06:15:00,SystemResetWarning,0831.1,5.01,000.00,029.2,027.0,000.0,037.7,030.8,23.1,0000.0,0006.04,0003.40,0002.92
2023-08-13 06:16:00,SystemResetWarning,0831.1,5.00,000.00,029.2,027.3,000.0,037.7,030.8,23.1,0000.0,0006.27,0003.43,0002.93
2023-08-13 06:17:00,SystemResetWarning,0831.1,5.00,000.00,029.2,027.5,000.0,037.7,030.9,23.1,0000.0,0006.31,0003.44,0002.94
2023-08-13 06:18:00,SystemResetWarning,0831.1,5.00,000.00,029.2,027.7,000.0,037.7,030.9,23.0,0000.0,0006.38,0003.45,0002.92
2023-08-13 06:19:00,SystemResetWarning,0831.1,5.00,000.00,029.3,027.9,000.0,037.7,031.0,22.8,0000.0,0006.32,0003.45,0002.93
2023-08-13 06:20:00,SystemResetWarning,0831.1,5.00,000.00,029.3,028.1,000.0,037.8,031.0,22.6,0000.0,0006.24,0003.45,0002.93
2023-08-13 06:21:00,SystemResetWarning,0831.1,5.00,000.00,029.4,028.2,000.0,037.8,031.1,22.7,0000.0,0006.23,0003.45,0002.92
2023-08-13 06:22:00,SystemResetWarning,0831.1,5.00,000.00,029.4,028.3,000.0,037.8,031.1,22.5,0000.0,0006.06,0003.42,0002.93
2023-08-13 06:23:00,SystemResetWarning,0831.1,4.98,000.00,029.4,027.4,000.0,037.8,031.0,22.3,0000.0,0006.12,0003.43,0002.92
2023-08-13 06:24:00,SystemResetWarning,0831.0,5.00,000.00,029.3,025.4,000.0,037.6,030.6,22.3,0000.0,0006.22,0003.44,0002.91
2023-08-13 06:25:00,SystemResetWarning,0831.0,5.00,000.00,029.2,024.6,000.0,037.5,030.4,22.3,0000.0,0006.30,0003.48,0002.93
2023-08-13 06:26:00,SystemResetWarning,0831.0,5.01,000.00,029.1,024.8,000.0,037.5,030.2,22.3,0000.0,0005.77,0003.47,0002.91
2023-08-13 06:27:00,SystemResetWarning,0831.0,5.00,000.00,029.0,025.2,000.0,037.5,030.2,22.5,0000.0,0005.62,0003.46,0002.89
2023-08-13 06:28:00,SystemResetWarning,0831.1,5.00,000.00,029.0,025.6,000.0,037.5,030.4,22.5,0000.0,0006.01,0003.45,0002.88
2023-08-13 06:29:00,SystemResetWarning,0831.1,5.00,000.00,029.0,026.1,000.0,037.6,030.5,22.5,0000.0,0006.59,0003.43,0002.89
2023-08-13 06:30:00,SystemResetWarning,0831.1,5.00,000.00,029.0,026.5,000.0,037.6,030.6,22.5,0000.0,0006.77,0003.41,0002.88
2023-08-13 06:31:00,SystemResetWarning,0831.1,4.99,000.00,029.0,026.8,000.0,037.6,030.7,22.3,0000.0,0007.33,0003.40,0002.88
2023-08-13 06:32:00,SystemResetWarning,0831.0,4.99,000.00,029.1,027.1,000.0,037.6,030.7,22.3,0000.0,0007.31,0003.40,0002.89
2023-08-13 06:33:00,SystemResetWarning,0831.1,5.00,000.00,029.1,027.4,000.0,037.6,030.8,22.3,0000.0,0007.31,0003.40,0002.88
2023-08-13 06:34:00,SystemResetWarning,0831.1,5.00,000.00,029.1,027.6,000.0,037.6,030.8,22.3,0000.0,0007.26,0003.37,0002.87
2023-08-13 06:35:00,SystemResetWarning,0831.1,5.00,000.00,029.2,027.7,000.0,037.6,030.9,22.3,0000.0,0007.24,0003.38,0002.88
2023-08-13 06:36:00,SystemResetWarning,0831.2,5.00,000.00,029.2,027.9,000.0,037.6,030.9,22.3,0000.0,0007.08,0003.34,0002.86
2023-08-13 06:37:00,SystemResetWarning,0831.1,5.01,000.00,029.2,028.0,000.0,037.7,031.0,22.1,0000.0,0006.87,0003.31,0002.85
2023-08-13 06:38:00,SystemResetWarning,0831.1,5.00,000.00,029.3,028.1,000.0,037.7,031.0,22.1,0000.0,0007.02,0003.31,0002.85
2023-08-13 06:39:00,SystemResetWarning,0831.0,4.99,000.00,029.3,028.2,000.0,037.7,031.1,22.0,0000.0,0007.24,0003.28,0002.85
2023-08-13 06:40:00,SystemResetWarning,0831.1,4.99,000.00,029.4,028.3,000.0,037.8,031.1,21.8,0000.0,0006.44,0003.26,0002.83
2023-08-13 06:41:00,SystemResetWarning,0831.1,5.00,000.00,029.4,028.3,000.0,037.8,031.1,21.7,0000.0,0006.24,0003.29,0002.84
2023-08-13 06:42:00,SystemResetWarning,0831.0,5.00,000.00,029.4,026.8,000.0,037.7,030.9,21.7,0000.0,0005.72,0003.32,0002.85
2023-08-13 06:43:00,SystemResetWarning,0830.9,5.00,000.00,029.3,025.7,000.0,037.6,030.7,21.8,0000.0,0005.95,0003.33,0002.84
2023-08-13 06:44:00,SystemResetWarning,0830.9,5.00,000.00,029.2,025.7,000.0,037.5,030.5,22.0,0000.0,0006.95,0003.34,0002.84
2023-08-13 06:45:00,SystemResetWarning,0830.9,5.01,000.00,029.1,026.0,000.0,037.6,030.5,22.0,0000.0,0007.30,0003.35,0002.84
2023-08-13 06:46:00,SystemResetWarning,0830.9,5.00,000.00,029.1,026.3,000.0,037.6,030.6,22.1,0000.0,0007.27,0003.32,0002.81
2023-08-13 06:47:00,SystemResetWarning,0830.9,4.99,000.00,029.1,026.7,000.0,037.7,030.7,22.0,0000.0,0007.37,0003.33,0002.80
2023-08-13 06:48:00,SystemResetWarning,0830.9,5.00,000.00,029.2,027.0,000.0,037.7,030.8,22.0,0000.0,0007.46,0003.36,0002.79
2023-08-13 06:49:00,SystemResetWarning,0830.9,5.00,000.00,029.2,027.3,000.0,037.7,030.8,21.9,0000.0,0008.28,0003.37,0002.79
2023-08-13 06:50:00,SystemResetWarning,0831.0,4.99,000.00,029.2,027.5,000.0,037.7,030.9,21.9,0000.0,0008.04,0003.38,0002.77
2023-08-13 06:51:00,SystemResetWarning,0831.0,4.99,000.00,029.2,027.7,000.0,037.7,030.9,22.0,0000.0,0008.12,0003.38,0002.76
2023-08-13 06:52:00,SystemResetWarning,0831.0,5.00,000.00,029.3,027.9,000.0,037.8,031.0,21.9,0000.0,0008.12,0003.38,0002.74
2023-08-13 06:53:00,SystemResetWarning,0831.0,5.00,000.00,029.3,028.0,000.0,037.8,031.0,22.0,0000.0,0008.06,0003.36,0002.73
2023-08-13 06:54:00,SystemResetWarning,0831.0,5.00,000.00,029.4,028.2,000.0,037.8,031.1,21.9,0000.0,0007.91,0003.35,0002.72
2023-08-13 06:55:00,SystemResetWarning,0831.0,4.99,000.00,029.4,028.3,000.0,037.8,031.1,21.8,0000.0,0007.21,0003.32,0002.71
2023-08-13 06:56:00,SystemResetWarning,0831.0,4.99,000.00,029.4,028.2,000.0,037.8,031.2,21.8,0000.0,0007.00,0003.33,0002.71
2023-08-13 06:57:00,SystemResetWarning,0830.9,4.99,000.00,029.4,026.7,000.0,037.7,030.9,21.8,0000.0,0007.12,0003.32,0002.71
2023-08-13 06:58:00,SystemResetWarning,0830.9,5.00,000.00,029.3,025.7,000.0,037.6,030.7,21.9,0000.0,0007.66,0003.31,0002.70
2023-08-13 06:59:00,SystemResetWarning,0830.9,5.01,000.00,029.3,025.7,000.0,037.6,030.5,21.9,0000.0,0007.67,0003.31,0002.71
